Regional Weather Roundup
Issued by NWS

Home | Current Version | Previous Version | Text Only | Print | Product List | Glossary Off
Versions: 1 2 3 4 5 6 7 8 9 10 11 12 13 14 15 16 17 18 19 20 21 22 23 24 25 26 27 28 29 30 31 32 33 34 35 36 37 38 39 40 41 42 43 44 45 46 47 48 49 50

000
ASUS43 KDTX 250501
RWRMI
MICHIGAN HOURLY REGIONAL WEATHER ROUNDUP
NATIONAL WEATHER SERVICE DETROIT/PONTIAC MI
100 AM EDT MON JUL 25 2016

NOTE: "FAIR" INDICATES FEW OR NO CLOUDS BELOW 12,000 FEET WITH NO
SIGNIFICANT WEATHER AND/OR OBSTRUCTION TO VISIBILITY.

MIZ047>049-052>055-059>063-066>070-074>076-081>083-250600-
SOUTHEAST LOWER MICHIGAN

CITY           SKY/WX    TMP DP  RH WIND       PRES   REMARKS
ADRIAN         MOCLDY    77  75  93 SW8       29.91S
ALMA           CLOUDY    77  72  83 W9G20     29.83F
ANN ARBOR      PTCLDY    76  75  97 S5        29.89S
BAD AXE        MOCLDY    78  73  82 S10       29.83F
CARO           MOCLDY    80  75  84 S7        29.83R
DETROIT CITY   MOCLDY    79  74  84 SW7       29.88S
DETROIT        MOCLDY    78  73  84 S7        29.89S
FLINT          CLOUDY    83  75  77 SW9       29.85F HX  90
GROSSE ILE     CLOUDY    79  75  89 S9        29.88S
HOWELL         CLOUDY    79  76  89 S6        29.88S

CITY           SKY/WX    TMP DP  RH WIND       PRES   REMARKS
JACKSON        CLOUDY    81  77  88 SW12      29.90S
LAMBERTVILLE   CLOUDY    81  74  80 SW6       29.91S
LANSING        CLOUDY    82  75  79 SW10G21   29.87S
LAPEER         FAIR      78  73  83 S8        29.86S
MASON          CLOUDY    80  75  84 SW5       29.88S
MONROE         CLOUDY    78  74  88 S8G20     29.89S
MT. CLEMENS    CLOUDY    76  72  88 S6        29.85F
PONTIAC        PTCLDY    77  73  87 S8        29.88S
PORT HOPE        N/A     75  73  93 S3        29.80F
PORT HURON     CLOUDY    75  70  83 S6        29.87F
TRI CITIES     TSTM      79  76  90 W9        29.83R
MIDLAND        NOT AVBL
TROY           MOCLDY    79  72  78 SW8       29.90S
SAGINAW HB     CLOUDY    81  75  83 S9        29.82R
$$
MIZ043>046-050>051-056>058-064>065-071>073-077>080-250600-
SOUTHWEST LOWER MICHIGAN

CITY           SKY/WX    TMP DP  RH WIND       PRES   REMARKS
BATTLE CREEK   LGT RAIN  78  78 100 SW10      29.90R
BENTON HARBOR  CLOUDY    77  65  66 S10       29.91R
BIG RAPIDS     CLOUDY    74  74 100 CALM      29.85S
COLDWATER      CLOUDY    81  77  88 SW9G17    29.92R
FREMONT        FAIR      75  75 100 W3        29.85S
HOLLAND        CLOUDY    77  69  76 W9        29.89R
GRAND RAPIDS   CLOUDY    80  67  64 SW12      29.88R
IONIA          MOCLDY    81  67  61 W16G23    29.86R
KALAMAZOO      MOCLDY    80  73  79 SW9       29.91R
LUDINGTON      PTCLDY    74  68  82 NW5       29.84S
MARSHALL       CLOUDY    82  78  89 SW10      29.89S HX  90
MOUNT PLEASANT CLOUDY    80  78  91 W6        29.82F
MUSKEGON       CLOUDY    75  73  93 CALM      29.86R
SOUTH HAVEN    CLOUDY    79  63  57 SW8       29.89R
$$
MIZ016>042-250600-
NORTHERN LOWER MICHIGAN

CITY           SKY/WX    TMP DP  RH WIND       PRES   REMARKS
ALPENA         CLOUDY    77  72  84 W3        29.79S
BEAVER ISLAND  PTCLDY    68  67  98 W3        29.81S FOG
BELLAIRE       MOCLDY    76  74  93 CALM      29.80S FOG
CADILLAC       CLOUDY    73  72  96 W3        29.85F FOG
CHARLEVOIX     CLOUDY    72  71  97 W8        29.84R FOG
FRANKFORT        N/A     70  68  93 CALM      29.82S FOG
GAYLORD        PTCLDY    76  72  87 W5        29.83S
GRAYLING       CLOUDY    76  74  95 SW3       29.84S FOG
HARBOR SPRINGS CLOUDY    72  72  98 CALM      29.81R FOG
HOUGHTON LAKE  CLOUDY    77  74  90 W7        29.84R
MANISTEE       PTCLDY    69  69 100 CALM      29.83S FOG
OSCODA         LGT RAIN  75  73  93 SW10      29.79S
PELLSTON       CLOUDY    71  70  96 NW6       29.80S FOG
ROGERS CITY    CLOUDY    74  71  88 N5        29.80R
TRAVERSE CITY  CLOUDY    77  72  84 W9        29.79S
$$
MIZ007>008-015-250600-
EASTERN UPPER MICHIGAN

CITY           SKY/WX    TMP DP  RH WIND       PRES   REMARKS
KINROSS        CLOUDY    70  70 100 NW7       29.79F FOG
MACKINAC ISLAN FOG       69  69 100 W5        29.79F VSB 1/4
NEWBERRY       PTCLDY    67  66  95 W5        29.80F
S. S. MARIE    CLOUDY    70  69  97 W5        29.77F FOG
$$
MIZ004>006-011>014-085-250600-
CENTRAL UPPER MICHIGAN

CITY           SKY/WX    TMP DP  RH WIND       PRES   REMARKS
MANISTIQUE     PTCLDY    69  66  90 NW6       29.81S
ESCANABA         N/A    N/A N/A N/A MISG        N/A
MENOMINEE      PTCLDY    73  67  81 W3        29.85
SAWYER-GWINN   CLEAR     68  61  77 W6        29.85S
$$
MIZ001>003-009>011-084-250600-
WESTERN UPPER MICHIGAN

CITY           SKY/WX    TMP DP  RH WIND       PRES   REMARKS
IRON MOUNTAIN  CLEAR     65  59  81 CALM      29.86R
HOUGHTON       CLEAR     68  59  73 W8        29.80S
COPPER HARBOR    N/A     72  58  61 NW6       29.76F
IRONWOOD       CLEAR     66  63  88 W8        29.87R
$$

ABBREVIATIONS USED IN REMARKS
   TC - TEMPERATURE IN CELSIUS
  WCI - WIND CHILL INDEX
   HX - HEAT INDEX
  VSB - VISIBILITY





USA.gov is the U.S. government's official web portal to all federal, state and local government web resources and services.